Location: Street
(51.1247°N, 2.7429°W)
Time: 03:27:39
(UTC+00:00)

X-37B - Pass Details

Date: 03 November 2020
Orbit: 384 x 390 km, 45.0° (Epoch: 26 November)

Event Time Altitude Azimuth Distance (km) Brightness Sun altitude
Exits shadow 05:36:52 - 206° (SSW) 1,937 3.9 -14.5°
Reaches altitude 10° 05:38:51 10° 182° (S) 1,411 3.5 -14.2°
Maximum altitude 05:40:18 13° 155° (SSE) 1,267 3.6 -14.0°
Drops below altitude 10° 05:41:46 10° 127° (SE) 1,413 4.4 -13.8°
Sets 05:44:43 0° 97° (E) 2,269 6.6 -13.3°
